Home > Weather > Wetzikon > Past weeks

Flag for Switzerland Weather for the Past 2 Weeks in Wetzikon, Zurich, Switzerland

Now
36 °F

Clear.


Feels Like: 36 °F
Forecast: 41 / 46 °F
Wind: No wind

Location: Zurich-Kloten

Current Time: Apr 30, 2016 at 6:12:25 AM

Latest Report: Apr 30, 2016 at 5:20 AM


Visibility: 10 mi

Pressure: 30.01 "Hg (28.06 "Hg at 540m altitude)

Humidity: 100%

Dew Point: 36 °F

Location of WetzikonLocation

Historic Weather in Wetzikon — Graph

°F

Wetzikon Temperature Yesterday

Maximum temperature yesterday: 61 °F (at 5:20 PM)
Minimum temperature yesterday: 32 °F (at 6:20 AM)
Average temperature yesterday: 48 °F

High & Low Weather Summary for the Past Weeks

 TemperatureHumidityPressure
High68 °F (Apr 21, 3:50 PM)100% (Apr 16, 1:50 AM)30.33 "Hg (Apr 16, 1:50 AM)
Low27 °F (Apr 28, 5:50 AM)29% (Apr 29, 6:20 PM)29.65 "Hg (Apr 16, 10:20 PM)
Average47 °F74%29.97 "Hg
* Reported Apr 15 4:20 AM — Apr 30 4:20 AM, Wetzikon, Weather by CustomWeather, © 2016

Note: Actual official high and low records may vary slightly from our data, if they occured in-between our weather recording intervals... More about our weather records

Advertising

Wetzikon Weather History for the Previous 24 Hours

Scroll right to see more
 ConditionsComfort  
Time TempWeatherWind HumidityBarometerVisibility
4:20 AM
Sat, Apr 30
37 °FClear.1 mph87%30.01 "Hg10 mi
3:50 AM37 °FClear.No wind87%30.01 "Hg10 mi
3:20 AM36 °FClear.3 mph87%30.01 "Hg10 mi
2:50 AM39 °FClear.No wind87%30.01 "Hg10 mi
1:50 AM37 °FClear.2 mph87%30.04 "Hg10 mi
1:20 AM39 °FClear.1 mph87%30.01 "Hg10 mi
12:50 AM41 °FClear.1 mph81%30.04 "Hg10 mi
12:20 AM41 °FClear.1 mph81%30.04 "Hg10 mi
11:50 PM
Fri, Apr 29
43 °FClear.No wind76%30.01 "Hg10 mi
11:20 PM43 °FClear.1 mph76%30.01 "Hg10 mi
10:50 PM46 °FClear.No wind66%30.04 "Hg10 mi
10:20 PM46 °FClear.1 mph66%30.01 "Hg10 mi
9:50 PM48 °FClear.2 mph62%30.01 "Hg10 mi
9:20 PM52 °FSunny.3 mph50%30.01 "Hg10 mi
8:50 PM54 °FSunny.2 mph47%30.01 "Hg10 mi
8:20 PM54 °FPassing clouds.5 mph44%30.01 "HgN/A
7:50 PM59 °FPassing clouds.7 mph34%30.01 "HgN/A
7:20 PM59 °FScattered clouds.8 mph34%30.01 "HgN/A
6:50 PM61 °FScattered clouds.8 mph34%30.01 "HgN/A
6:20 PM61 °FPassing clouds.9 mph29%30.01 "HgN/A
5:50 PM61 °FPassing clouds.7 mph34%30.01 "HgN/A
5:20 PM61 °FPassing clouds.5 mph31%30.01 "HgN/A
4:50 PM59 °FPassing clouds.3 mph36%30.01 "HgN/A
4:20 PM59 °FPassing clouds.8 mph39%30.01 "HgN/A
3:50 PM57 °FPassing clouds.5 mph39%30.01 "HgN/A
3:20 PM59 °FPassing clouds.7 mph39%30.04 "HgN/A
2:50 PM57 °FPassing clouds.5 mph41%30.04 "HgN/A
2:20 PM57 °FPassing clouds.3 mph41%30.04 "HgN/A
1:50 PM55 °FPassing clouds.9 mph41%30.04 "HgN/A
1:20 PM55 °FPassing clouds.3 mph38%30.04 "HgN/A
12:50 PM55 °FPassing clouds.5 mph41%30.04 "HgN/A
12:20 PM54 °FPassing clouds.3 mph47%30.07 "HgN/A
11:50 AM52 °FPassing clouds.6 mph47%30.07 "HgN/A
11:20 AM52 °FPassing clouds.3 mph50%30.07 "HgN/A
10:50 AM50 °FPassing clouds.2 mph54%30.07 "HgN/A
10:20 AM48 °FPassing clouds.2 mph62%30.07 "HgN/A
9:50 AM46 °FSunny.2 mph62%30.07 "Hg10 mi
9:20 AM45 °FSunny.5 mph66%30.07 "Hg10 mi
8:50 AM43 °FPassing clouds.3 mph71%30.07 "HgN/A
8:20 AM41 °FPassing clouds.1 mph76%30.07 "HgN/A
7:50 AM37 °FPassing clouds.1 mph87%30.07 "HgN/A
7:20 AM34 °FPassing clouds.1 mph93%30.07 "HgN/A
6:50 AM32 °FPassing clouds.1 mph93%30.07 "HgN/A
6:20 AM32 °FFog.No wind100%30.07 "HgN/A
Weather by CustomWeather, © 2016

See weather overviewHow to use our weather pages